User: anonymous   Login
Location: Space Photons Observatory
(33.2428°N, 111.5467°W)
Time: 06:22:13
(UTC-07:00)
Language:

RESURS DK-1 - Orbit

View from above orbital plane
View from above orbital plane
View from above satellite
View from above satellite

Ground track
Ground track

The orbit data is extracted from the following two-line orbital elements,

1 29228U 06021A   17024.20387533  .00000106  00000-0  15472-4 0  9997
2 29228  69.9360 104.3822 0006640 229.0656 130.9931 15.02079775586484
Epoch (UTC): 24 January 2017 04:53:34
Eccentricity: 0.0006640
inclination: 69.9360°
perigee height: 556 km
apogee height: 565 km
right ascension of ascending node: 104.3822°
argument of perigee: 229.0656°
revolutions per day: 15.02079775
mean anomaly at epoch: 130.9931°
orbit number at epoch: 58648

The dashed part of the orbit path shows where the satellite is in the earth's shadow,  

DLR